Theta_e
307 308 308 308 308 308 307 307 308 308 310 310 307 305 305 305 305 303 308 312 303 302 304 305 305 303 304 305 300 305 303 303 301 297 297 297 296 297 296 297 295 293 292 291 293 290 286 302 300 292 297 301 300 298
307 307 307 307 307 307 307 307 306 307 308 310 307 305 304 305 305 304 306 310 308 301 303 307 307 308 306 307 304 307 303 304 305 301 301 300 297 297 297 293 300 292 297 294 295 295 304 304 303 303 302 299 296 294
306 307 307 307 307 307 307 306 306 307 308 309 307 305 304 304 304 304 304 308 305 302 304 304 305 309 309 307 312 303 306 310 307 310 304 300 295 299 294 295 297 299 303 299 297 298 301 303 304 303 299 299 297 296
303 305 306 307 306 307 307 306 306 306 307 309 307 305 304 304 304 304 304 309 304 303 298 304 311 308 311 310 309 311 310 313 312 307 300 299 298 303 297 298 297 300 301 298 297 300 301 302 302 301 300 298 296 296
301 303 305 306 306 306 306 306 306 306 307 308 307 305 304 304 304 304 304 308 308 301 299 302 309 311 311 310 308 308 310 308 304 301 300 298 302 300 300 300 296 301 299 297 296 302 300 300 299 301 297 295 295 294
301 302 304 305 306 306 306 306 306 306 306 308 307 305 304 304 303 303 302 308 310 307 301 299 308 308 308 307 307 307 308 307 306 303 302 303 307 301 296 294 300 302 304 303 300 304 303 300 298 297 294 294 295 295
300 300 302 303 304 305 306 306 306 307 307 308 307 305 304 304 303 301 300 303 305 309 301 298 300 305 307 306 306 305 308 306 304 302 301 301 301 302 297 296 301 302 304 304 305 304 301 300 296 296 295 295 295 295
300 300 301 301 303 304 305 305 305 305 307 308 305 304 304 303 302 299 305 302 304 302 302 295 298 300 305 302 301 306 303 304 303 301 302 300 301 301 294 300 302 303 304 304 303 303 301 299 298 295 296 295 293 293
300 300 300 301 302 304 305 305 305 305 306 306 304 304 300 297 299 304 306 304 304 301 297 296 294 296 304 302 304 304 304 297 304 299 299 300 297 294 299 300 301 302 302 302 303 299 298 296 295 294 294 293 292 292
300 300 300 301 302 304 305 305 305 305 306 304 300 293 290 297 306 305 301 297 296 297 298 293 301 297 302 301 300 301 302 297 295 298 303 298 296 304 305 303 304 304 305 303 298 296 296 294 293 293 293 294 294 294
300 300 300 301 302 303 304 305 305 305 302 296 291 291 303 307 300 297 295 294 296 293 297 296 297 297 305 298 298 301 298 298 292 296 296 295 295 300 304 304 306 306 304 301 299 298 297 295 294 294 295 295 296 295
299 300 300 301 302 304 304 304 305 300 295 297 298 302 301 297 295 291 291 296 295 293 299 297 298 299 302 304 299 300 295 297 290 302 295 292 299 304 303 303 305 304 302 300 298 296 296 296 297 296 295 295 297 297
299 299 300 301 302 303 304 304 304 301 302 301 295 293 293 291 286 287 287 291 293 298 300 300 297 300 301 302 298 298 292 292 301 294 292 295 303 303 303 305 304 303 301 299 297 296 297 297 298 298 298 299 299 297
299 299 300 301 302 303 304 304 302 301 297 291 289 284 288 286 290 292 294 296 300 301 301 300 298 298 300 297 298 292 295 297 291 289 290 301 303 303 305 304 302 300 299 297 296 297 297 298 299 299 299 301 299 297
298 299 300 301 301 303 304 302 302 300 295 291 291 286 288 295 297 298 300 300 302 303 302 300 298 298 296 295 297 295 292 290 292 292 300 302 305 304 303 303 302 300 298 298 297 298 298 299 299 298 300 301 299 298
298 299 300 301 302 303 301 300 297 297 295 293 292 290 294 294 295 297 298 299 303 302 303 301 296 295 293 295 292 291 290 289 294 301 303 304 305 305 304 303 301 301 299 298 298 299 298 299 296 296 299 299 299 297
298 297 302 301 302 301 298 295 294 291 292 289 291 295 294 294 294 296 299 299 304 300 296 297 292 291 297 292 291 295 293 297 301 303 304 307 306 305 304 303 301 301 299 299 299 300 300 300 298 296 295 297 296 296
295 301 301 300 297 296 295 294 293 292 288 292 291 293 295 297 296 297 299 301 300 299 299 295 299 294 292 290 292 297 300 303 304 304 305 307 307 306 304 302 301 300 300 300 300 301 301 299 298 297 297 297 297 297
297 301 300 298 298 295 291 292 294 288 290 293 294 295 295 296 298 299 300 302 302 302 299 298 295 293 294 298 299 300 302 303 302 303 305 307 308 305 304 302 302 302 301 301 300 300 300 301 300 300 300 299 297 298
301 299 299 299 299 293 289 290 297 291 288 291 294 293 293 294 296 297 298 299 299 298 295 294 295 298 299 302 304 304 304 306 304 302 302 305 306 305 304 301 300 302 301 301 301 294 300 301 301 301 302 301 300 300
294 295 297 298 297 297 294 291 290 292 293 290 293 292 291 293 292 293 295 298 295 294 293 296 298 302 305 307 306 306 305 306 303 303 302 302 305 304 303 302 303 302 300 299 299 298 296 300 300 302 301 301 302 303
294 297 297 298 293 293 293 295 294 294 292 293 292 292 291 290 291 293 296 296 293 295 297 298 299 300 302 304 305 307 307 306 307 304 301 302 303 303 302 301 300 300 299 299 300 299 299 301 302 302 302 301 300 303
297 298 295 293 288 288 287 294 288 290 286 288 291 289 289 291 293 297 292 293 294 298 299 299 301 303 302 304 306 306 306 305 305 304 304 306 305 305 304 303 301 301 300 300 302 300 300 295 299 302 302 301 302 302
297 293 289 288 287 285 290 287 290 289 290 288 288 286 288 291 295 291 289 291 295 298 298 300 300 300 301 303 301 303 304 305 305 305 305 305 305 305 305 303 302 302 302 302 301 301 301 301 296 301 302 301 302 303
287 285 287 283 289 285 284 284 285 286 284 287 286 286 289 293 288 287 287 292 295 297 298 299 299 299 298 299 301 303 306 304 302 303 304 306 306 305 303 302 301 302 303 301 300 301 301 301 302 302 302 303 303 303
281 286 285 285 285 284 285 282 284 285 286 286 287 290 293 289 286 285 291 294 297 298 299 299 299 298 299 300 300 301 302 305 304 302 304 306 307 304 302 299 299 299 303 303 301 301 301 301 301 301 301 300 293 302
280 284 288 292 290 288 287 289 290 288 285 285 288 289 288 284 285 291 300 302 303 304 304 303 301 300 299 300 301 303 304 305 306 304 306 307 308 308 305 301 300 301 304 303 303 302 301 301 301 301 302 303 304 304
287 288 286 288 288 290 286 288 287 287 288 292 292 287 285 287 289 298 301 304 305 305 305 305 306 305 303 303 303 303 303 304 308 307 306 308 309 309 308 306 306 293 303 305 304 303 303 303 302 301 302 302 303 304
287 290 290 287 288 288 289 288 288 292 295 295 290 289 292 298 301 299 301 303 304 303 301 302 303 305 305 304 304 303 303 303 302 301 301 302 303 303 306 306 303 303 304 303 289 293 301 303 303 303 303 303 304 304
288 292 288 288 287 286 290 293 292 294 296 297 298 296 296 297 300 303 302 302 300 300 302 303 303 303 302 301 300 301 303 305 307 305 303 302 302 304 303 302 303 304 305 304 303 302 288 300 297 303 302 302 302 302
291 290 287 287 287 290 292 295 296 296 297 296 297 294 294 295 299 302 302 302 302 303 302 302 302 304 303 302 301 300 300 304 305 306 309 308 306 305 304 304 304 304 304 304 304 303 302 302 303 302 302 301 301 300
291 288 287 285 288 292 294 293 292 291 291 291 292 294 295 293 291 300 304 304 302 302 298 300 302 302 305 305 305 304 294 304 305 308 307 307 306 305 304 304 304 304 305 304 304 303 303 303 303 302 302 302 303 302
290 290 290 289 288 288 292 291 290 289 290 289 290 293 293 291 290 300 306 307 304 303 303 304 305 306 306 305 305 306 303 310 303 293 293 295 296 299 304 304 305 305 305 304 304 304 303 302 303 303 304 303 303 301
Wind_Speed
14 13 12 12 12 11 10 11 10 9 11 10 10 8 8 10 14 9 4 3 5 6 7 6 4 5 6 4 4 5 3 4 4 6 5 5 4 4 3 3 4 3 3 6 7 8 4 9 10 5 6 9 13 12
15 13 12 12 11 11 10 10 12 10 11 11 10 9 7 9 11 10 5 5 2 5 5 5 7 7 5 6 5 3 1 2 4 2 4 4 6 6 10 5 4 3 5 4 3 4 13 11 11 8 7 8 6 8
15 15 13 12 11 11 12 10 11 11 10 11 11 10 7 7 9 7 7 7 6 7 9 10 7 6 4 6 1 5 3 5 1 4 6 3 4 4 5 5 8 4 7 2 3 5 8 8 10 9 8 7 7 7
14 14 14 13 11 11 11 11 10 11 9 10 12 11 8 7 8 8 7 6 4 6 6 5 5 4 5 4 6 4 3 3 3 6 6 6 5 3 5 6 6 8 10 9 6 8 9 9 10 7 7 7 10 12
15 14 13 13 13 12 11 11 11 10 10 9 13 11 9 7 8 8 8 8 3 5 6 3 5 10 7 4 5 6 5 5 6 7 5 5 6 5 7 8 6 7 9 2 3 9 8 10 4 7 7 10 11 11
15 15 13 12 12 13 12 10 11 11 9 10 14 12 9 7 6 6 4 5 2 3 5 5 6 7 7 4 6 7 5 6 8 7 5 5 4 3 3 6 6 4 3 2 6 9 7 9 9 6 5 8 10 10
15 14 13 13 12 13 13 11 11 10 10 12 14 12 9 7 6 5 6 5 10 4 5 5 4 6 8 6 5 5 6 6 6 7 8 6 5 1 5 6 12 7 3 4 6 6 6 8 4 5 3 7 10 8
16 15 14 14 13 13 13 13 11 9 10 13 13 11 7 4 9 8 9 9 5 5 4 4 2 6 9 6 6 4 5 6 6 6 5 5 1 2 3 3 4 2 5 6 10 11 8 2 2 4 6 8 9 8
16 16 15 14 15 13 13 13 12 9 7 17 12 10 3 4 5 2 13 7 3 5 5 5 6 3 8 7 4 6 4 5 4 5 7 4 6 5 7 1 4 3 5 8 6 9 4 6 5 6 7 7 6 6
16 16 16 15 15 13 13 13 12 8 12 21 6 3 4 5 17 13 4 6 6 6 6 6 7 6 9 8 7 5 3 6 5 6 4 4 9 13 11 1 2 3 8 8 9 9 6 6 6 6 5 4 3 3
16 16 16 15 15 14 13 14 12 10 17 3 4 4 2 11 3 4 7 7 8 6 7 6 10 10 7 6 5 4 3 4 4 4 4 4 2 2 8 8 4 6 8 7 6 3 0 3 3 3 5 4 2 3
15 16 15 15 14 13 13 16 11 9 5 7 4 1 3 3 3 5 5 6 8 8 8 9 7 10 4 3 4 3 4 4 5 7 4 3 3 10 7 8 8 7 6 6 3 3 1 2 3 2 4 8 6 4
15 15 15 13 13 13 13 9 23 15 12 3 2 5 5 4 6 7 10 7 7 5 8 8 7 8 5 5 4 5 5 5 1 4 4 4 10 7 9 9 8 7 6 4 2 2 3 4 2 5 7 4 3 4
14 13 14 10 10 9 8 14 24 18 4 3 5 6 5 5 8 8 10 9 6 8 11 9 9 5 5 7 3 4 5 3 5 5 6 6 9 7 10 6 6 6 6 2 3 2 2 3 4 5 5 2 5 5
13 13 12 11 7 10 10 28 24 3 3 4 4 6 9 9 9 9 8 4 7 8 9 9 7 4 5 4 5 5 5 6 5 3 4 7 8 10 8 4 5 4 4 3 5 2 5 9 5 5 4 2 8 7
12 9 12 11 10 14 32 19 4 1 2 2 4 5 7 9 7 6 9 6 5 7 8 6 4 4 6 4 6 7 5 6 5 6 8 8 9 10 6 6 5 4 5 5 4 5 5 6 7 4 3 9 7 7
11 5 8 16 19 27 20 5 2 2 4 3 5 5 5 5 8 6 4 5 5 8 8 5 6 7 5 5 6 5 8 3 6 10 9 9 10 9 6 8 5 4 6 7 3 8 5 9 9 6 7 7 7 7
4 9 25 28 20 12 2 2 3 5 5 6 4 5 8 2 3 5 3 4 4 7 6 1 5 6 5 6 7 5 6 7 9 7 9 12 10 10 7 7 5 5 6 5 7 5 6 9 9 6 6 5 5 4
10 15 33 27 7 5 4 2 3 4 6 5 6 5 5 3 3 4 3 2 3 6 4 3 5 4 6 2 0 4 8 9 11 7 7 11 12 10 8 7 5 5 6 6 6 2 5 2 6 10 9 5 4 7
26 33 25 15 4 3 4 3 3 3 3 2 3 5 4 4 4 4 5 6 5 5 5 5 5 2 4 2 3 6 7 6 11 10 10 10 10 11 9 6 5 6 6 5 6 1 2 2 2 9 9 8 6 8
14 6 10 4 2 2 3 4 4 3 3 4 4 5 4 6 6 7 7 7 6 4 7 6 6 2 4 7 5 4 8 8 7 5 9 9 7 10 8 6 7 5 6 5 7 4 1 3 2 4 7 5 5 7
4 11 3 3 2 1 1 1 1 1 2 1 2 6 5 6 8 9 8 6 8 8 6 7 8 6 6 4 4 3 6 9 5 6 12 15 9 10 8 7 5 6 5 4 6 5 3 1 2 3 7 7 4 8
7 2 3 2 2 2 2 3 4 4 4 3 4 3 3 3 4 6 4 7 8 9 10 10 12 10 4 8 8 8 9 7 10 6 10 11 9 11 9 7 6 6 6 5 5 4 4 2 1 2 5 6 6 6
5 4 5 5 4 3 4 4 3 3 3 3 4 4 5 5 5 4 5 9 10 12 12 13 10 9 10 10 8 6 6 7 7 6 6 11 9 10 9 8 7 6 6 5 4 4 6 3 1 5 8 8 8 8
2 1 4 1 4 4 5 5 6 4 5 5 3 4 3 3 4 4 5 7 9 8 11 13 12 11 10 10 10 10 12 9 8 7 3 2 11 10 9 7 7 6 7 7 6 5 5 6 3 3 2 7 7 9
3 6 5 8 5 6 6 6 8 8 6 6 7 4 5 4 6 6 7 10 9 10 11 12 12 11 11 11 10 10 10 10 10 9 8 9 11 12 11 10 9 8 8 7 7 7 6 8 4 5 1 6 6 10
4 6 5 5 4 6 4 5 6 9 6 7 4 6 4 4 6 2 6 6 3 5 5 6 6 10 11 11 10 10 9 10 11 6 6 6 8 11 11 12 13 10 10 11 8 6 7 7 8 5 5 6 5 9
6 4 9 9 7 6 8 4 5 7 6 3 4 5 6 5 3 3 2 2 2 1 4 3 4 5 5 9 9 8 10 10 8 8 2 12 11 8 11 9 9 13 10 9 9 8 7 6 7 9 8 7 7 7
7 6 7 8 8 6 5 5 4 3 3 3 3 3 2 2 2 3 3 4 3 3 5 5 4 5 6 6 7 9 11 11 17 19 16 10 10 8 8 9 11 10 10 9 6 3 8 10 10 10 9 6 7 9
10 8 6 7 9 6 5 5 5 7 5 0 2 3 4 3 2 2 4 4 6 7 7 5 6 7 8 9 10 11 11 10 12 14 13 13 12 10 10 10 11 11 9 9 7 4 4 9 8 9 9 8 8 8
3 3 4 6 6 5 5 4 2 2 2 2 2 4 4 4 6 6 6 6 8 7 9 8 8 8 9 9 10 10 10 10 10 12 16 13 13 12 12 11 9 9 8 9 8 8 9 10 9 10 11 12 12 9
3 6 5 5 5 6 5 3 5 5 3 3 4 3 3 1 4 4 5 8 8 5 8 9 9 8 9 7 8 8 7 9 9 17 22 14 13 13 13 11 9 7 7 9 9 10 11 11 10 11 11 14 14 14
4 4 4 2 2 3 4 5 6 5 3 3 4 4 4 0 4 4 4 7 6 7 9 9 8 9 9 9 9 10 11 14 15 14 15 16 17 13 10 9 9 9 12 10 10 11 13 15 12 13 14 14 14 14
Wind_Direction
266 266 268 271 272 273 272 287 287 305 310 249 260 277 306 331 340 339 326 50 328 312 328 18 357 328 331 287 291 54 307 154 273 259 275 314 338 339 356 304 345 264 273 284 280 251 271 356 1 27 2 345 340 354
264 260 262 265 269 268 268 274 287 289 295 240 241 256 283 313 330 340 271 138 359 270 335 340 295 303 309 339 321 229 8 267 342 307 336 6 318 337 332 296 152 261 217 184 163 279 326 356 12 64 11 21 26 344
286 268 257 257 260 264 268 264 281 280 282 241 224 239 254 289 314 330 307 325 298 261 265 211 201 141 188 216 319 281 114 11 177 348 314 313 289 301 297 297 322 292 93 182 254 280 290 335 60 48 81 24 352 328
290 284 265 256 256 259 267 261 266 275 272 255 221 225 239 266 296 315 295 334 294 288 275 123 131 168 111 158 204 233 320 327 298 276 262 272 267 209 272 290 279 272 277 282 296 302 346 342 42 41 18 8 349 339
281 280 275 262 256 256 260 265 264 263 264 256 214 217 229 254 284 288 274 275 263 292 324 344 183 162 165 197 216 218 228 251 256 226 233 263 282 314 291 292 283 32 346 322 283 355 353 356 71 21 21 3 341 326
279 275 270 267 261 257 256 262 266 264 261 243 208 208 218 237 282 279 233 191 209 243 273 276 91 159 161 187 219 220 213 237 247 280 264 253 144 221 276 303 334 163 99 5 322 329 352 85 106 70 15 351 314 325
273 274 270 267 268 260 251 252 264 270 262 219 197 197 208 227 252 272 354 355 327 299 248 263 193 157 171 180 210 210 202 249 237 254 248 265 295 256 286 291 286 310 343 303 307 8 338 45 354 26 3 312 329 328
267 269 269 265 263 262 251 242 249 265 280 185 178 183 195 244 279 261 216 217 295 275 275 266 201 171 185 195 206 198 209 202 240 249 256 268 235 234 260 273 64 36 289 298 35 57 75 63 304 31 346 333 326 312
261 266 265 266 258 255 251 232 240 233 281 156 158 147 142 241 227 133 118 132 223 295 288 218 254 164 174 232 178 175 221 225 255 234 247 238 242 222 240 68 218 263 317 35 4 129 55 357 45 9 340 328 336 348
257 263 262 260 257 252 245 223 226 204 170 132 98 207 202 214 118 136 154 176 193 212 223 258 259 231 190 201 177 178 219 225 210 216 192 234 245 246 227 87 358 14 39 25 11 343 340 341 32 343 325 312 325 350
253 259 262 261 256 249 239 215 199 189 128 90 150 214 262 164 165 217 206 208 179 212 205 227 231 240 179 231 201 195 217 244 235 153 217 241 267 219 137 129 98 58 66 66 42 64 57 12 333 332 352 334 280 309
253 258 261 260 252 245 235 207 196 147 145 157 152 205 242 200 163 199 222 220 201 211 181 200 196 214 135 217 240 210 220 232 246 154 196 246 157 126 135 137 102 87 68 57 32 75 252 240 125 358 304 309 310 94
253 257 256 254 244 252 228 192 167 145 136 93 120 187 198 157 202 214 190 200 198 194 149 179 163 186 102 215 226 204 225 217 85 206 211 241 115 159 126 108 106 88 70 80 67 149 268 260 153 251 288 215 280 92
251 255 253 251 248 216 195 181 155 150 101 154 170 177 220 182 224 210 217 203 201 180 153 166 165 177 167 194 183 195 231 181 214 223 230 115 132 125 97 112 127 110 87 33 109 208 264 237 297 37 319 262 164 132
246 255 240 243 240 253 207 152 155 143 150 173 187 202 206 227 238 227 245 247 188 146 160 168 157 189 169 191 194 213 187 219 218 222 102 123 118 114 110 98 100 92 107 121 104 296 16 52 8 327 290 120 111 117
245 256 235 226 218 171 143 126 80 145 196 202 223 232 235 231 247 201 195 183 168 151 157 153 144 180 198 212 202 193 217 200 206 129 136 134 111 114 119 101 87 82 113 119 113 69 93 61 25 337 319 111 120 125
230 243 165 188 165 141 123 98 113 157 176 204 227 225 252 279 246 247 193 187 179 167 155 178 195 180 195 222 207 222 216 78 100 127 110 118 119 122 124 95 104 111 128 119 126 97 95 88 75 79 90 105 120 131
259 188 129 124 117 108 78 86 182 168 195 217 208 219 244 209 230 244 207 178 202 182 195 296 321 226 193 201 204 208 118 137 110 116 131 120 122 125 132 129 129 124 132 133 105 119 107 111 103 98 103 113 114 132
263 147 139 139 126 103 123 163 236 204 217 190 216 202 209 220 301 314 313 188 254 68 96 268 252 226 231 52 221 162 125 146 124 111 129 120 124 128 127 123 130 138 150 120 120 124 94 97 154 139 147 168 207 193
147 132 130 128 153 97 111 128 209 256 240 201 223 217 206 221 225 241 250 219 210 177 190 202 238 257 211 195 21 79 93 126 154 163 152 129 132 127 132 144 141 145 142 142 128 32 90 37 166 140 143 147 168 156
81 101 127 177 150 139 157 155 180 208 206 214 220 226 236 233 220 226 228 226 201 220 222 228 244 204 0 351 93 300 133 205 183 155 134 130 139 124 129 133 156 159 182 178 130 130 159 51 45 89 141 146 120 101
113 188 168 90 71 64 163 100 84 120 218 244 245 176 204 213 216 218 229 229 227 221 233 237 239 241 174 240 183 78 64 102 110 102 102 134 153 144 143 145 147 171 180 162 140 144 132 78 102 115 112 108 127 130
150 59 62 63 83 101 227 178 178 205 209 204 190 203 202 203 217 206 212 220 228 228 230 231 241 257 266 236 247 160 150 194 218 155 161 131 152 135 133 136 149 173 166 169 130 155 124 346 85 146 149 149 126 124
179 174 184 176 159 201 170 190 195 223 226 208 186 201 187 190 167 200 235 221 214 214 222 228 236 232 233 213 245 228 195 212 145 221 183 136 137 131 130 135 154 182 180 157 167 178 179 158 168 220 146 163 179 147
114 212 140 227 220 182 185 192 198 203 221 200 183 236 179 152 204 224 236 236 240 221 200 202 217 219 220 226 208 199 220 228 216 177 187 189 143 126 122 136 147 179 191 174 179 170 192 176 221 184 203 144 122 124
204 207 193 200 189 196 200 193 197 196 199 200 197 215 157 208 197 226 213 217 218 212 202 192 198 209 210 218 215 212 211 215 224 222 171 177 153 144 149 155 161 174 203 184 190 182 190 157 176 197 143 112 115 130
238 217 193 207 207 197 232 210 209 178 199 203 205 166 170 211 232 224 62 3 350 8 10 319 233 203 201 204 213 215 208 216 227 146 186 206 132 150 156 164 172 170 192 180 193 194 197 179 159 185 169 143 155 128
244 265 204 195 200 210 237 272 184 200 215 170 119 179 178 210 240 62 121 231 344 255 310 304 279 279 247 194 190 185 195 210 135 78 97 100 118 121 127 141 156 140 183 179 186 209 212 197 175 167 178 170 133 130
233 237 243 210 213 204 223 211 220 252 229 140 191 233 216 52 90 117 199 202 217 264 273 257 245 246 263 179 179 194 199 192 136 171 168 130 124 128 134 133 140 159 177 180 231 276 274 190 161 159 164 139 129 123
230 228 228 230 205 207 209 187 242 250 271 213 180 287 282 270 243 311 281 271 244 223 226 225 218 216 235 202 187 194 197 204 169 165 158 155 143 133 134 145 150 164 167 166 182 174 151 116 111 126 138 140 133 124
232 227 260 262 256 268 266 250 242 236 254 284 316 281 294 338 306 265 243 228 239 209 207 201 200 218 239 211 178 186 198 185 187 174 130 127 134 137 141 156 160 163 176 163 154 155 134 145 146 146 151 144 145 152
233 219 202 217 239 236 233 254 256 252 274 280 265 265 275 281 267 264 204 210 217 184 231 212 200 216 218 186 170 187 194 171 155 122 127 131 132 142 146 158 167 173 169 147 160 150 158 145 148 149 145 139 121 117
228 230 228 230 220 202 181 185 187 186 187 215 239 232 206 254 273 252 211 217 218 211 194 187 189 192 163 161 120 93 100 100 105 105 111 121 131 140 152 160 171 185 165 169 162 149 142 140 131 128 117 118 112 108